When you browse on this site, cookies collect data to enhance your experience and personalize the content and advertising you see.
Visit our Privacy Policy to learn more. By continuing to use the site, you agree to this use of cookies and data.
EN

Hourly Weather Pavlovo

Today, 11 August, Tuesday

Time Temperature Precipitation Wind Pressure Humidity
00:00 +17°C° 0.1 mm 2 mps 742 mmHg 91%
01:00 +16°C° 0.1 mm 2 mps 742 mmHg 93%
02:00 +16°C° 0.1 mm 2 mps 743 mmHg 94%
03:00 +16°C° 0 mm 2 mps 743 mmHg 95%
04:00 +15°C° 0 mm 2 mps 743 mmHg 96%
05:00 +14°C° 0 mm 3 mps 743 mmHg 97%
06:00 +16°C° 0 mm 3 mps 743 mmHg 94%
07:00 +17°C° 0 mm 3 mps 743 mmHg 92%
08:00 +18°C° 0 mm 4 mps 743 mmHg 89%
09:00 +18°C° 0 mm 4 mps 743 mmHg 83%
10:00 +19°C° 0 mm 4 mps 743 mmHg 77%
11:00 +20°C° 0 mm 4 mps 743 mmHg 71%
12:00 +20°C° 0 mm 4 mps 743 mmHg 68%
13:00 +20°C° 0 mm 5 mps 743 mmHg 65%
14:00 +21°C° 0 mm 5 mps 743 mmHg 62%
15:00 +20°C° 0 mm 5 mps 743 mmHg 66%
16:00 +19°C° 0 mm 5 mps 744 mmHg 69%
17:00 +19°C° 0 mm 4 mps 744 mmHg 72%
18:00 +17°C° 0 mm 4 mps 744 mmHg 76%
19:00 +16°C° 0 mm 3 mps 744 mmHg 80%
20:00 +13°C° 0 mm 3 mps 744 mmHg 83%
21:00 +12°C° 0 mm 3 mps 744 mmHg 85%
22:00 +12°C° 0 mm 3 mps 744 mmHg 87%
23:00 +11°C° 0 mm 3 mps 745 mmHg 89%

Tomorrow, 12 August, Wednesday

Time Temperature Precipitation Wind Pressure Humidity
00:00 +10°C° 0 mm 3 mps 744 mmHg 91%
01:00 +9°C° 0 mm 3 mps 744 mmHg 93%
02:00 +9°C° 0 mm 3 mps 744 mmHg 94%
03:00 +9°C° 0 mm 3 mps 744 mmHg 95%
04:00 +9°C° 0 mm 3 mps 744 mmHg 96%
05:00 +7°C° 0 mm 4 mps 744 mmHg 96%
06:00 +10°C° 0 mm 4 mps 744 mmHg 94%
07:00 +11°C° 0 mm 4 mps 744 mmHg 91%
08:00 +12°C° 0 mm 4 mps 745 mmHg 88%
09:00 +13°C° 0 mm 4 mps 745 mmHg 84%
10:00 +14°C° 0 mm 5 mps 745 mmHg 80%
11:00 +15°C° 0 mm 5 mps 745 mmHg 76%
12:00 +16°C° 0 mm 5 mps 745 mmHg 73%
13:00 +18°C° 0 mm 4 mps 745 mmHg 70%
14:00 +18°C° 0 mm 4 mps 745 mmHg 67%
15:00 +18°C° 0.1 mm 4 mps 745 mmHg 69%
16:00 +18°C° 0.1 mm 4 mps 745 mmHg 72%
17:00 +18°C° 0.1 mm 4 mps 745 mmHg 74%
18:00 +15°C° 0 mm 4 mps 745 mmHg 78%
19:00 +13°C° 0 mm 3 mps 745 mmHg 82%
20:00 +12°C° 0 mm 3 mps 745 mmHg 85%
21:00 +11°C° 0 mm 3 mps 745 mmHg 87%
22:00 +10°C° 0 mm 3 mps 745 mmHg 88%
23:00 +9°C° 0 mm 3 mps 745 mmHg 89%

Day after tomorrow, 13 August, Thursday

Time Temperature Precipitation Wind Pressure Humidity
00:00 +9°C° 0 mm 3 mps 745 mmHg 88%
01:00 +9°C° 0 mm 3 mps 745 mmHg 87%
02:00 +9°C° 0 mm 3 mps 745 mmHg 86%
03:00 +9°C° 0 mm 3 mps 745 mmHg 83%
04:00 +10°C° 0 mm 3 mps 745 mmHg 81%
05:00 +10°C° 0 mm 3 mps 745 mmHg 78%
06:00 +11°C° 0 mm 3 mps 745 mmHg 76%
07:00 +12°C° 0 mm 4 mps 745 mmHg 75%
08:00 +12°C° 0 mm 4 mps 745 mmHg 74%
09:00 +13°C° 0 mm 4 mps 745 mmHg 70%
10:00 +14°C° 0 mm 4 mps 745 mmHg 67%
11:00 +15°C° 0 mm 4 mps 745 mmHg 64%
12:00 +15°C° 0 mm 4 mps 745 mmHg 65%
13:00 +15°C° 0 mm 4 mps 745 mmHg 66%
14:00 +15°C° 0 mm 4 mps 745 mmHg 68%
15:00 +16°C° 0 mm 3 mps 745 mmHg 69%
16:00 +16°C° 0 mm 3 mps 745 mmHg 70%
17:00 +16°C° 0 mm 3 mps 745 mmHg 71%
18:00 +14°C° 0 mm 3 mps 745 mmHg 76%
19:00 +14°C° 0 mm 2 mps 745 mmHg 81%
20:00 +12°C° 0 mm 2 mps 745 mmHg 86%
21:00 +12°C° 0 mm 2 mps 745 mmHg 86%
22:00 +11°C° 0 mm 1 mps 745 mmHg 87%
23:00 +10°C° 0 mm 1 mps 745 mmHg 88%

14 August, Friday

Time Temperature Precipitation Wind Pressure Humidity
00:00 +10°C° 0 mm 1 mps 745 mmHg 88%
01:00 +9°C° 0 mm 1 mps 745 mmHg 87%
02:00 +9°C° 0 mm 1 mps 745 mmHg 87%
03:00 +9°C° 0 mm 1 mps 745 mmHg 86%
04:00 +10°C° 0 mm 1 mps 745 mmHg 86%
05:00 +10°C° 0 mm 1 mps 745 mmHg 85%
06:00 +11°C° 0 mm 1 mps 745 mmHg 81%
07:00 +13°C° 0 mm 1 mps 745 mmHg 77%
08:00 +14°C° 0 mm 1 mps 745 mmHg 73%
09:00 +16°C° 0 mm 1 mps 745 mmHg 69%
10:00 +18°C° 0 mm 1 mps 745 mmHg 65%
11:00 +19°C° 0 mm 1 mps 745 mmHg 62%
12:00 +20°C° 0 mm 1 mps 745 mmHg 62%
13:00 +20°C° 0 mm 1 mps 745 mmHg 63%
14:00 +19°C° 0 mm 2 mps 745 mmHg 64%
15:00 +20°C° 0.1 mm 1 mps 744 mmHg 68%
16:00 +20°C° 0.1 mm 1 mps 744 mmHg 72%
17:00 +20°C° 0.1 mm 1 mps 744 mmHg 76%
18:00 +18°C° 0.1 mm 1 mps 744 mmHg 81%
19:00 +16°C° 0.1 mm 1 mps 744 mmHg 86%
20:00 +15°C° 0.1 mm 1 mps 744 mmHg 90%
21:00 +14°C° 0 mm 2 mps 744 mmHg 91%
22:00 +14°C° 0 mm 2 mps 744 mmHg 92%
23:00 +14°C° 0 mm 2 mps 744 mmHg 93%

15 August, Saturday

Time Temperature Precipitation Wind Pressure Humidity
00:00 +13°C° 0 mm 2 mps 744 mmHg 94%
01:00 +13°C° 0 mm 2 mps 744 mmHg 94%
02:00 +13°C° 0 mm 2 mps 744 mmHg 94%
03:00 +13°C° 0 mm 2 mps 743 mmHg 94%
04:00 +13°C° 0 mm 2 mps 743 mmHg 94%
05:00 +12°C° 0 mm 2 mps 743 mmHg 95%
06:00 +14°C° 0 mm 2 mps 743 mmHg 92%
07:00 +15°C° 0 mm 2 mps 743 mmHg 90%
08:00 +16°C° 0 mm 3 mps 743 mmHg 88%
09:00 +16°C° 0.2 mm 2 mps 743 mmHg 88%
10:00 +17°C° 0.2 mm 2 mps 743 mmHg 88%
11:00 +17°C° 0.2 mm 2 mps 743 mmHg 88%
12:00 +17°C° 0.3 mm 2 mps 743 mmHg 88%
13:00 +18°C° 0.3 mm 1 mps 742 mmHg 88%
14:00 +18°C° 0.3 mm 1 mps 742 mmHg 88%
15:00 +18°C° 0.2 mm 1 mps 742 mmHg 90%
16:00 +18°C° 0.2 mm 1 mps 742 mmHg 92%
17:00 +16°C° 0.2 mm 1 mps 742 mmHg 93%
18:00 +16°C° 0 mm 2 mps 742 mmHg 93%
19:00 +16°C° 0 mm 2 mps 742 mmHg 93%
20:00 +15°C° 0 mm 2 mps 741 mmHg 93%
21:00 +15°C° 0 mm 2 mps 741 mmHg 93%
22:00 +15°C° 0 mm 2 mps 741 mmHg 93%
23:00 +15°C° 0 mm 2 mps 741 mmHg 94%

16 August, Sunday

Time Temperature Precipitation Wind Pressure Humidity
00:00 +15°C° 0.1 mm 2 mps 741 mmHg 94%
01:00 +15°C° 0.1 mm 2 mps 741 mmHg 94%
02:00 +15°C° 0.1 mm 2 mps 741 mmHg 94%
03:00 +14°C° 0.1 mm 1 mps 741 mmHg 94%
04:00 +14°C° 0.1 mm 1 mps 741 mmHg 94%
05:00 +13°C° 0.1 mm 0 mps 741 mmHg 95%
06:00 +15°C° 0 mm 1 mps 741 mmHg 92%
07:00 +16°C° 0 mm 1 mps 741 mmHg 90%
08:00 +18°C° 0 mm 1 mps 742 mmHg 87%
09:00 +18°C° 0.3 mm 2 mps 742 mmHg 85%
10:00 +19°C° 0.3 mm 2 mps 742 mmHg 82%
11:00 +20°C° 0.3 mm 3 mps 743 mmHg 80%
12:00 +20°C° 0.9 mm 4 mps 743 mmHg 80%
13:00 +20°C° 0.9 mm 5 mps 743 mmHg 80%
14:00 +20°C° 0.9 mm 5 mps 743 mmHg 80%
15:00 +20°C° 0.2 mm 5 mps 743 mmHg 79%
16:00 +20°C° 0.2 mm 5 mps 743 mmHg 78%
17:00 +19°C° 0.2 mm 5 mps 743 mmHg 78%
18:00 +18°C° 0 mm 4 mps 743 mmHg 80%
19:00 +15°C° 0 mm 4 mps 743 mmHg 83%
20:00 +14°C° 0 mm 3 mps 744 mmHg 86%
21:00 +13°C° 0 mm 3 mps 744 mmHg 87%
22:00 +12°C° 0 mm 3 mps 744 mmHg 88%
23:00 +11°C° 0 mm 3 mps 744 mmHg 89%
Show more